Location: Gro� Glienicke
(52.4675°N, 13.1079°E)
Time: 18:05:26
(UTC+00:00)

USA 215 - Pass Details

Date: 06 July 2020
Orbit: 1102 x 1106 km, 123.0° (Epoch: 08 August)

Event Time Altitude Azimuth Distance (km) Brightness Sun altitude
Rises 20:13:35 0° 60° (ENE) 3,927 6.0 -5.5°
Reaches altitude 10° 20:16:25 10° 70° (ENE) 2,965 5.3 -5.7°
Maximum altitude 20:22:09 32° 132° (SE) 1,801 3.9 -6.3°
Drops below altitude 10° 20:27:51 10° 193° (SSW) 2,953 5.2 -6.8°
Sets 20:30:39 0° 203° (SSW) 3,907 5.9 -7.1°
